AirNav   Air Wisconsin pilot careers
 
 1583 users online  

MI66 Michigan International Speedway Heliport
Brooklyn, Michigan, USA


FAA INFORMATION EFFECTIVE 01 FEBRUARY 2018

Location

FAA Identifier: MI66
Lat/Long: 42-03-32.0000N / 084-14-21.6000W
42-03.533333N / 084-14.360000W
42.0588889 / -84.2393333
(estimated)
Elevation: 1000 ft. / 305 m (estimated)
From city: 2 miles S of BROOKLYN, MI
Time zone: UTC -5 (UTC -4 during Daylight Saving Time)
Zip code: 49230

Heliport Operations

Heliport use: Private use. Permission required prior to landing
Activation date: 05/2006
Control tower: no
ARTCC: CLEVELAND CENTER
FSS: LANSING FLIGHT SERVICE STATION
Attendance: INTMT
ATTENDED RACE EVENT WEEKENDS ONLY.
Wind indicator: lighted
Segmented circle: no

Heliport Communications

WX ASOS at ADG (14 nm SE): 118.375 (517-265-9089)
WX ASOS at JXN (16 nm NW): PHONE 517-768-7506
WX AWOS-3 at JYM (18 nm SW): 121.025 (517-437-5638)

Nearby radio navigation aids

VOR radial/distance  VOR name  Freq  Var
JXNr146/15.5JACKSON VOR/DME109.6005W
LFDr096/23.4LITCHFIELD VOR/DME111.2005W
CRLr274/34.8CARLETON VOR/DME115.7003W
SVMr237/35.5SALEM VORTAC114.3003W
DXOr263/39.9DETROIT VOR/DME113.4006W

 
NDB name  Hdg/Dist  Freq  Var  ID
ADRIAN334/13.427806WADG .- -.. --.
TECUMSEH281/15.823906WTCU - -.-. ..-

Heliport Services

Runway Information

Helipad H1

Dimensions: 35 x 35 ft. / 11 x 11 m
Surface: turf
Runway edge lights: PERI
H1, H2 & H3 LGTS ON PRIOR REQ, CALL 517-592-6666.
Operational restrictions: CIRCULAR HELIPAD.
Traffic pattern: leftleft

Helipad H2

Dimensions: 35 x 35 ft. / 11 x 11 m
Surface: turf
Runway edge lights: PERI
Operational restrictions: CIRCULAR HELIPAD.
Traffic pattern: leftleft

Helipad H3

Dimensions: 35 x 35 ft. / 11 x 11 m
Surface: turf
Runway edge lights: PERI
Operational restrictions: CIRCULAR HELIPAD.
Traffic pattern: leftleft

Heliport Ownership and Management from official FAA records

Ownership: Privately-owned
Owner: INTERNATIONAL SPEEDWAY CORP
12626 US HWY 12
BROOKLYN, MI 49230
Phone 577-592-6666
Manager: TONY NAGORSEN
12626 US HWY 12
BROOKLYN, MI 49230
Phone 517-592-6666
ADDITIONAL CONTACT: TIM LAMB 517-592-1411 TLAMB@MISPEEDWAT.COM

Additional Remarks

AUTHORIZED HELICOPTER OPS ONLY.
TMPRY FLT RESTRICTION IN EFFECT 1 HR BEFORE TO 1 HR AFTER SCHEDULED RACE. WAIVER REQUIRED.
INTENSIVE HELICOPTER ACTIVITY RACE WKENDS.
FREQ 123.025 MONITORED RACE EVENTS WEEKENDS ONLY.

Instrument Procedures

There are no published instrument procedures at MI66.

Some nearby airports with instrument procedures:

3TE - Al Meyers Airport (14 nm E)
KADG - Lenawee County Airport (14 nm SE)
KJXN - Jackson County Airport-Reynolds Field (16 nm NW)
KJYM - Hillsdale Municipal Airport (18 nm SW)
KARB - Ann Arbor Municipal Airport (24 nm NE)
 
Loc | Ops | Rwys | IFR | FBO | Links
Com | Nav | Svcs | Stats | Notes

AirNav Hotels Sweepstakes
 
Area around MI66 (Michigan International Speedway Heliport)
 
Road maps at: MapQuest Bing Google
 
Aerial photo
No photo
 
Sectional chart

 
Airport distance calculator
Flying to Michigan International Speedway Heliport? Find the distance to fly.

From to MI66

Sunrise and sunset
Times for 20-Feb-2018
 Local
(UTC-5)
 Zulu
(UTC)
Morning civil twilight06:5911:59
Sunrise07:2712:27
Sunset18:1523:15
Evening civil twilight18:4323:43

Current date and time
Zulu (UTC)  20-Feb-2018 15:43:43
Local (UTC-5)  20-Feb-2018 10:43:43
 
METAR
KADG 
13nm SE 
201453Z AUTO 22015KT 4SM RA BR SCT026 BKN045 OVC090 14/13 A2999 RMK AO2 SLP159 P0007 60009 T01390128 50005 TSNO
KJXN 
16nm NW 
201456Z 19015G24KT 3SM RA BR BKN014 BKN020 OVC049 16/14 A2994 RMK AO2 RAB08 SLP138 P0006 60019 T01560144 55001
KJYM 
18nm SW 
201515Z AUTO 20011G19KT 3SM +RA OVC007 14/13 A2998 RMK AO2 P0006
KARB 
24nm NE 
734-668-7173
201453Z 18011KT 9SM FEW060 BKN080 OVC100 13/13 A2997 RMK AO2 RAB00E37 SLP150 P0003 60004 T01280128 50003
TAF
KJXN 
16nm NW 
201143Z 2012/2112 20013G20KT 5SM -RA BR OVC035 TEMPO 2012/2016 1SM +RA BR OVC008 FM201600 22008KT 3/4SM RA BR OVC004 WS014/22055KT FM201800 22008KT 1/2SM RA FG OVC003 FM210700 29010KT 2SM -RA BR OVC007 FM210900 31010KT P6SM OVC025
NOTAMs
Click for the latest NOTAMs
NOTAMs are issued by the DoD/FAA and will open in a separate window not controlled by AirNav.

 

 
 

Would you like to see your business listed on this page?

 If your business provides an interesting product or service to pilots, flight crews, aircraft, or users of the Michigan International Speedway Heliport, you should consider listing it here.  To start the listing process, click on the button below
 
Add a business
 

Other Pages about Michigan International Speedway Heliport

Update a link
 
Copyright © AirNav, LLC. All rights reserved. Privacy Policy  Contact